Location: Unspecified
(34.4139°N, 0.0000°E)
Time: 07:52:20
(UTC+00:00)

CSL-04 DEB - Visible Passes

Search period start: 04 April 2026 00:00
Search period end: 14 April 2026 00:00
Orbit: 667 x 920 km, 99.0° (Epoch: 29 March)

Date Brightness Start Highest point End Pass type
(mag) Time Alt. Az. Time Alt. Az. Time Alt. Az.
4 Apr ? 21:15:11 38° N 21:15:11 38° N 21:18:45 10° N visible
4 Apr ? 22:55:59 10° WNW 22:55:59 10° WNW 22:56:09 10° WNW visible
5 Apr ? 20:46:09 30° NE 20:46:09 30° NE 20:49:48 10° N visible
5 Apr ? 22:26:56 19° NW 22:26:56 19° NW 22:28:58 10° NW visible
6 Apr ? 20:17:07 20° NE 20:17:07 20° NE 20:20:22 10° NNE visible
6 Apr ? 21:57:54 31° NW 21:57:54 31° NW 22:00:56 10° NNW visible
7 Apr ? 19:48:04 11° ENE 19:48:04 11° ENE 19:49:31 10° NE visible
7 Apr ? 21:28:50 41° N 21:28:50 41° N 21:32:29 10° NNW visible
8 Apr ? 20:59:48 37° NNE 20:59:48 37° NNE 21:03:40 10° N visible
8 Apr ? 22:40:35 16° WNW 22:40:35 16° WNW 22:42:08 10° NW visible
9 Apr ? 20:30:45 25° NE 20:30:45 25° NE 20:34:28 10° NNE visible
9 Apr ? 22:11:32 27° NW 22:11:32 27° NW 22:14:23 10° NNW visible
10 Apr ? 20:01:42 15° ENE 20:01:42 15° ENE 20:04:31 10° NNE visible
10 Apr ? 21:42:28 41° NNW 21:42:28 41° NNW 21:46:06 10° NNW visible
11 Apr ? 21:13:25 44° NNE 21:13:25 44° NNE 21:17:25 10° N visible
11 Apr ? 22:54:12 12° WNW 22:54:12 12° WNW 22:55:00 10° NW visible
12 Apr ? 20:44:23 32° NE 20:44:23 32° NE 20:48:23 10° N visible
12 Apr ? 22:25:09 22° WNW 22:25:09 22° WNW 22:27:41 10° NW visible
13 Apr ? 20:15:19 19° ENE 20:15:19 19° ENE 20:18:50 10° NNE visible
13 Apr ? 21:56:05 37° NW 21:56:05 37° NW 21:59:36 10° NNW visible
